Regional Weather Roundup
Issued by NWS

Home | Current Version | Previous Version | Graphics & Text | Print | Product List | Glossary On
Versions: 1 2 3 4 5 6 7 8 9 10 11 12 13 14 15 16 17 18 19 20 21 22 23 24 25 26 27 28 29 30 31 32 33 34 35 36 37 38 39 40 41 42 43 44 45 46 47 48 49 50
000
ASUS43 KLMK 241410
RWRKY
KENTUCKY REGIONAL WEATHER ROUNDUP
NATIONAL WEATHER SERVICE LOUISVILLE KY
1000 AM EDT WED AUG 24 2016

NOTE "FAIR" INDICATES FEW OR NO CLOUDS BELOW 12,000 FEET
WITH NO SIGNIFICANT WEATHER AND/OR OBSTRUCTIONS TO VISIBILITY.

KYZ001>023-026-027-061>063-070>075-241500-
WESTERN AND SOUTH CENTRAL KENTUCKY

CITY           SKY/WX    TMP DP  RH WIND       PRES   REMARKS
PADUCAH        CLOUDY   N/A N/A N/A SW8       30.13F
HENDERSON      CLOUDY    79  72  78 SW8       30.13S
OWENSBORO      CLOUDY    79  75  87 SW8       30.17R
HOPKINSVILLE   MOSUNNY   81  73  77 SW8       30.19S
BOWLING GREEN  MOSUNNY   81  71  71 S9        30.21S
GLASGOW        MOSUNNY   76  72  85 S6        30.22S
$$

KYZ024-025-028>034-038-045-046-053-241500-
NORTH CENTRAL KENTUCKY

CITY           SKY/WX    TMP DP  RH WIND       PRES   REMARKS
LOUISVILLE/SDF CLOUDY    78  69  73 S8        30.18F
LOUISVILLE/LOU PTSUNNY   77  68  73 S7        30.19S
FORT KNOX      MOSUNNY   77  70  77 S9        30.19R
$$

KYZ035>037-039>044-047>052-055>060-089>105-241500-
NORTHEAST KENTUCKY

CITY           SKY/WX    TMP DP  RH WIND       PRES   REMARKS
LEXINGTON      CLOUDY    78  67  68 S8        30.23F
COVINGTON      CLOUDY    74  67  78 S7        30.20S
FRANKFORT      MOSUNNY   78  68  71 SW7       30.21S
$$

KYZ054-064>069-076>088-106>120-241500-
SOUTHEAST KENTUCKY

CITY           SKY/WX    TMP DP  RH WIND       PRES   REMARKS
JACKSON        CLOUDY    71  64  78 CALM      30.28S
LONDON         CLOUDY    72  65  78 SE3       30.27S
SOMERSET       CLOUDY    73  66  78 S5        30.27S
MIDDLESBORO    CLOUDY    68  66  93 CALM      30.30S
MONTICELLO     MOSUNNY  N/A N/A N/A N8        30.27S
$$





USA.gov is the U.S. government's official web portal to all federal, state and local government web resources and services.